| time (UTC) | temp F | wind direction | speed knots | gust knots | rain 1hr in | rain 24hr in | rain mn in | humidity % | barometer mb |
| 20260507164054 | 62 | 266 | 13.0 | 18.2 | 0.00 | 0.06 | 0.01 | 46 | 1016.2 |
| 20260507163546 | 62 | 282 | 11.3 | 18.2 | 0.00 | 0.06 | 0.01 | 49 | 1016.2 |
| 20260507163056 | 62 | 259 | 10.4 | 17.4 | 0.00 | 0.06 | 0.01 | 48 | 1016.4 |
| 20260507162549 | 62 | 277 | 11.3 | 18.2 | 0.00 | 0.06 | 0.01 | 49 | 1016.3 |
| 20260507162049 | 61 | 262 | 11.3 | 18.2 | 0.00 | 0.06 | 0.01 | 50 | 1016.3 |
| 20260507161558 | 61 | 282 | 13.0 | 18.2 | 0.00 | 0.06 | 0.01 | 48 | 1016.4 |
| 20260507161045 | 61 | 261 | 13.0 | 18.2 | 0.00 | 0.06 | 0.01 | 49 | 1016.4 |
| 20260507160549 | 61 | 255 | 12.2 | 18.2 | 0.00 | 0.06 | 0.01 | 49 | 1016.4 |
| 20260507160055 | 60 | 234 | 13.0 | 18.2 | 0.00 | 0.06 | 0.01 | 50 | 1016.5 |
| 20260507155548 | 60 | 258 | 12.2 | 18.2 | 0.00 | 0.07 | 0.01 | 49 | 1016.6 |
| 20260507155047 | 60 | 297 | 10.4 | 15.6 | 0.00 | 0.07 | 0.01 | 52 | 1016.6 |
| 20260507154601 | 59 | 253 | 10.4 | 16.5 | 0.00 | 0.07 | 0.01 | 54 | 1016.6 |
| 20260507154047 | 58 | 269 | 13.0 | 16.5 | 0.00 | 0.07 | 0.01 | 52 | 1016.6 |
| 20260507153546 | 58 | 248 | 10.4 | 14.8 | 0.00 | 0.07 | 0.01 | 55 | 1016.6 |
| 20260507153100 | 57 | 230 | 10.4 | 15.6 | 0.00 | 0.07 | 0.01 | 55 | 1016.6 |
| 20260507152547 | 56 | 269 | 11.3 | 15.6 | 0.00 | 0.07 | 0.01 | 57 | 1016.7 |
| 20260507152048 | 55 | 237 | 11.3 | 15.6 | 0.00 | 0.07 | 0.01 | 59 | 1016.7 |
| 20260507151550 | 55 | 256 | 9.6 | 15.6 | 0.00 | 0.07 | 0.01 | 63 | 1016.9 |
| 20260507151047 | 54 | 240 | 9.6 | 14.8 | 0.00 | 0.07 | 0.01 | 65 | 1017.0 |
| 20260507150546 | 53 | 246 | 11.3 | 14.8 | 0.00 | 0.07 | 0.01 | 65 | 1016.9 |
| 20260507150052 | 52 | 267 | 9.6 | 14.8 | 0.00 | 0.07 | 0.01 | 71 | 1016.9 |
| 20260507145549 | 51 | 233 | 11.3 | 13.9 | 0.00 | 0.08 | 0.01 | 70 | 1016.9 |
| 20260507145048 | 51 | 259 | 8.7 | 13.0 | 0.00 | 0.08 | 0.01 | 71 | 1017.0 |
| 20260507144553 | 50 | 246 | 7.8 | 13.0 | 0.00 | 0.08 | 0.01 | 74 | 1017.0 |
| 20260507144047 | 50 | 231 | 10.4 | 13.0 | 0.00 | 0.08 | 0.01 | 73 | 1017.1 |
| 20260507143547 | 49 | 255 | 10.4 | 13.0 | 0.00 | 0.08 | 0.01 | 75 | 1017.1 |
| 20260507143050 | 48 | 217 | 9.6 | 13.9 | 0.00 | 0.08 | 0.01 | 77 | 1017.1 |
| 20260507142547 | 48 | 238 | 9.6 | 13.9 | 0.00 | 0.08 | 0.01 | 78 | 1017.1 |
| 20260507142046 | 47 | 236 | 10.4 | 14.8 | 0.00 | 0.08 | 0.01 | 78 | 1017.2 |
| 20260507141552 | 46 | 250 | 10.4 | 14.8 | 0.00 | 0.08 | 0.01 | 81 | 1017.3 |
| 20260507141048 | 46 | 236 | 10.4 | 14.8 | 0.00 | 0.08 | 0.01 | 81 | 1017.4 |
| 20260507140549 | 45 | 243 | 9.6 | 13.9 | 0.00 | 0.08 | 0.01 | 83 | 1017.4 |
| 20260507140053 | 45 | 233 | 7.8 | 13.0 | 0.00 | 0.08 | 0.01 | 85 | 1017.5 |
| 20260507135546 | 44 | 259 | 8.7 | 12.2 | 0.00 | 0.09 | 0.01 | 86 | 1017.5 |
| 20260507135046 | 43 | 250 | 7.8 | 13.0 | 0.00 | 0.09 | 0.01 | 88 | 1017.5 |
| 20260507134554 | 43 | 245 | 9.6 | 13.0 | 0.00 | 0.09 | 0.01 | 88 | 1017.6 |
| 20260507134046 | 42 | 233 | 9.6 | 13.0 | 0.00 | 0.09 | 0.01 | 89 | 1017.7 |
| 20260507133549 | 41 | 254 | 9.6 | 13.0 | 0.00 | 0.09 | 0.01 | 90 | 1017.7 |
| 20260507133052 | 41 | 239 | 8.7 | 12.2 | 0.00 | 0.09 | 0.01 | 90 | 1017.8 |
| 20260507132549 | 40 | 252 | 8.7 | 13.0 | 0.00 | 0.09 | 0.01 | 91 | 1017.9 |
| 20260507132053 | 40 | 257 | 9.6 | 13.0 | 0.00 | 0.09 | 0.01 | 91 | 1017.9 |
| 20260507131600 | 39 | 246 | 6.1 | 12.2 | 0.00 | 0.09 | 0.01 | 92 | 1018.0 |
| 20260507131048 | 39 | 250 | 9.6 | 12.2 | 0.00 | 0.09 | 0.01 | 92 | 1018.0 |
| 20260507130547 | 39 | 239 | 7.8 | 10.4 | 0.00 | 0.09 | 0.01 | 92 | 1018.0 |
| 20260507130107 | 38 | 252 | 7.8 | 10.4 | 0.00 | 0.09 | 0.01 | 92 | 1018.1 |
| 20260507125548 | 38 | 244 | 7.8 | 13.0 | 0.00 | 0.09 | 0.01 | 92 | 1018.2 |
| 20260507125046 | 38 | 240 | 7.8 | 13.0 | 0.00 | 0.09 | 0.01 | 92 | 1018.2 |
| 20260507124555 | 38 | 239 | 7.8 | 13.0 | 0.00 | 0.09 | 0.01 | 92 | 1018.0 |
| 20260507124048 | 37 | 238 | 8.7 | 13.0 | 0.00 | 0.09 | 0.01 | 92 | 1018.0 |
| 20260507123548 | 37 | 204 | 8.7 | 12.2 | 0.00 | 0.09 | 0.01 | 93 | 1018.1 |
| 20260507123054 | 37 | 238 | 7.8 | 12.2 | 0.00 | 0.09 | 0.01 | 93 | 1018.0 |
| 20260507122547 | 36 | 245 | 7.8 | 12.2 | 0.00 | 0.09 | 0.01 | 93 | 1018.0 |
| 20260507122048 | 36 | 250 | 7.0 | 10.4 | 0.00 | 0.09 | 0.01 | 93 | 1018.0 |
| 20260507121607 | 36 | 253 | 7.0 | 12.2 | 0.00 | 0.09 | 0.01 | 93 | 1018.1 |
| 20260507121048 | 36 | 238 | 7.0 | 12.2 | 0.01 | 0.09 | 0.01 | 93 | 1018.0 |
| 20260507120550 | 36 | 238 | 7.8 | 10.4 | 0.01 | 0.09 | 0.01 | 93 | 1018.0 |
| 20260507115549 | 36 | 226 | 7.8 | 11.3 | 0.01 | 0.10 | 0.01 | 93 | 1018.0 |
| 20260507115048 | 36 | 238 | 7.8 | 11.3 | 0.01 | 0.10 | 0.01 | 93 | 1018.0 |
| 20260507114609 | 36 | 234 | 7.0 | 12.2 | 0.01 | 0.10 | 0.01 | 93 | 1018.0 |
| 20260507114048 | 36 | 212 | 8.7 | 13.0 | 0.01 | 0.10 | 0.01 | 93 | 1018.1 |
| 20260507113551 | 36 | 258 | 7.0 | 13.0 | 0.01 | 0.10 | 0.01 | 93 | 1018.1 |
| 20260507113052 | 36 | 260 | 8.7 | 12.2 | 0.01 | 0.10 | 0.01 | 93 | 1018.2 |
| 20260507112551 | 36 | 236 | 7.8 | 12.2 | 0.01 | 0.10 | 0.01 | 93 | 1018.2 |
| 20260507112051 | 36 | 226 | 8.7 | 13.0 | 0.01 | 0.10 | 0.01 | 93 | 1018.2 |
| 20260507111551 | 36 | 232 | 7.8 | 13.0 | 0.01 | 0.10 | 0.01 | 93 | 1018.3 |
| 20260507111050 | 36 | 248 | 8.7 | 13.0 | 0.00 | 0.09 | 0.00 | 93 | 1018.3 |
| 20260507110548 | 36 | 231 | 7.8 | 13.0 | 0.00 | 0.09 | 0.00 | 93 | 1018.4 |
| 20260507110055 | 36 | 242 | 7.8 | 11.3 | 0.00 | 0.09 | 0.00 | 93 | 1018.4 |
| 20260507105547 | 37 | 231 | 7.8 | 11.3 | 0.00 | 0.09 | 0.00 | 93 | 1018.4 |
| 20260507105048 | 36 | 231 | 7.8 | 10.4 | 0.00 | 0.09 | 0.00 | 93 | 1018.3 |
| 20260507104552 | 36 | 236 | 7.8 | 10.4 | 0.00 | 0.09 | 0.00 | 93 | 1018.3 |
| 20260507104048 | 36 | 221 | 7.0 | 10.4 | 0.00 | 0.09 | 0.00 | 93 | 1018.3 |
| 20260507103549 | 36 | 236 | 6.1 | 10.4 | 0.00 | 0.09 | 0.00 | 93 | 1018.3 |
| 20260507103054 | 35 | 240 | 6.1 | 10.4 | 0.00 | 0.09 | 0.00 | 93 | 1018.4 |
| 20260507102547 | 35 | 233 | 6.1 | 9.6 | 0.00 | 0.09 | 0.00 | 93 | 1018.5 |
| 20260507102049 | 36 | 229 | 6.1 | 9.6 | 0.00 | 0.09 | 0.00 | 93 | 1018.6 |
| 20260507101552 | 36 | 229 | 6.1 | 7.8 | 0.00 | 0.09 | 0.00 | 93 | 1018.6 |
| 20260507101048 | 36 | 239 | 5.2 | 8.7 | 0.00 | 0.09 | 0.00 | 93 | 1018.7 |
| 20260507100548 | 36 | 235 | 6.1 | 8.7 | 0.00 | 0.09 | 0.00 | 93 | 1018.8 |
| 20260507100048 | 36 | 224 | 5.2 | 8.7 | 0.00 | 0.09 | 0.00 | 93 | 1018.9 |
| 20260507095548 | 36 | 239 | 6.1 | 7.8 | 0.00 | 0.11 | 0.00 | 93 | 1019.0 |
| 20260507095048 | 36 | 231 | 5.2 | 7.0 | 0.00 | 0.11 | 0.00 | 93 | 1019.1 |
| 20260507094554 | 36 | 231 | 4.3 | 7.0 | 0.00 | 0.11 | 0.00 | 93 | 1019.2 |
| 20260507094048 | 36 | 233 | 4.3 | 7.0 | 0.00 | 0.11 | 0.00 | 93 | 1019.2 |
| 20260507093548 | 36 | 243 | 4.3 | 7.0 | 0.00 | 0.11 | 0.00 | 93 | 1019.2 |
| 20260507093056 | 36 | 232 | 4.3 | 7.8 | 0.00 | 0.11 | 0.00 | 93 | 1019.2 |
| 20260507092548 | 36 | 228 | 5.2 | 7.8 | 0.00 | 0.11 | 0.00 | 93 | 1019.2 |
| 20260507092048 | 36 | 244 | 4.3 | 7.0 | 0.00 | 0.11 | 0.00 | 93 | 1019.2 |
| 20260507091556 | 36 | 233 | 4.3 | 7.0 | 0.00 | 0.11 | 0.00 | 93 | 1019.2 |
| 20260507091048 | 36 | 224 | 4.3 | 7.0 | 0.00 | 0.11 | 0.00 | 93 | 1019.3 |
| 20260507090547 | 36 | 233 | 5.2 | 7.0 | 0.00 | 0.11 | 0.00 | 93 | 1019.4 |
| 20260507090057 | 36 | 231 | 4.3 | 7.0 | 0.00 | 0.11 | 0.00 | 93 | 1019.5 |
| 20260507085548 | 36 | 242 | 4.3 | 7.0 | 0.00 | 0.11 | 0.00 | 93 | 1019.5 |
| 20260507085047 | 36 | 228 | 4.3 | 6.1 | 0.00 | 0.11 | 0.00 | 93 | 1019.5 |
| 20260507084554 | 36 | 238 | 4.3 | 6.1 | 0.00 | 0.11 | 0.00 | 93 | 1019.6 |
| 20260507084050 | 36 | 227 | 3.5 | 6.1 | 0.00 | 0.11 | 0.00 | 93 | 1019.6 |
| 20260507083548 | 36 | 223 | 3.5 | 5.2 | 0.00 | 0.11 | 0.00 | 93 | 1019.6 |
| 20260507083053 | 36 | 236 | 4.3 | 5.2 | 0.00 | 0.11 | 0.00 | 93 | 1019.6 |
| 20260507082548 | 36 | 229 | 3.5 | 5.2 | 0.00 | 0.11 | 0.00 | 93 | 1019.7 |
| 20260507082051 | 36 | 239 | 2.6 | 4.3 | 0.00 | 0.11 | 0.00 | 93 | 1019.7 |
| 20260507081605 | 36 | 217 | 2.6 | 4.3 | 0.00 | 0.11 | 0.00 | 93 | 1019.8 |
| 20260507081048 | 36 | 229 | 1.7 | 3.5 | 0.00 | 0.11 | 0.00 | 93 | 1019.8 |
| 20260507080553 | 36 | 245 | 2.6 | 3.5 | 0.00 | 0.11 | 0.00 | 93 | 1020.0 |
| 20260507075549 | 36 | 246 | 2.6 | 3.5 | 0.00 | 0.12 | 0.00 | 92 | 1020.1 |
| 20260507075048 | 37 | 261 | 2.6 | 4.3 | 0.00 | 0.12 | 0.00 | 92 | 1020.2 |
| 20260507074607 | 37 | 242 | 2.6 | 4.3 | 0.00 | 0.12 | 0.00 | 93 | 1020.2 |
| 20260507074048 | 37 | 246 | 3.5 | 4.3 | 0.00 | 0.12 | 0.00 | 93 | 1020.2 |
| 20260507073549 | 37 | 262 | 2.6 | 3.5 | 0.00 | 0.12 | 0.00 | 92 | 1020.3 |
| 20260507073053 | 37 | 239 | 1.7 | 3.5 | 0.00 | 0.12 | 0.00 | 92 | 1020.4 |
| 20260507072549 | 37 | 251 | 1.7 | 3.5 | 0.00 | 0.12 | 0.00 | 92 | 1020.5 |
| 20260507072048 | 38 | 236 | 2.6 | 3.5 | 0.00 | 0.12 | 0.00 | 92 | 1020.5 |
| 20260507071553 | 38 | 259 | 2.6 | 3.5 | 0.00 | 0.12 | 0.00 | 92 | 1020.6 |
| 20260507071048 | 38 | 266 | 2.6 | 3.5 | 0.00 | 0.12 | 0.00 | 92 | 1020.7 |
| 20260507070549 | 39 | 241 | 2.6 | 4.3 | 0.00 | 0.12 | 0.00 | 92 | 1020.8 |
| 20260507070054 | 39 | 249 | 3.5 | 5.2 | 0.00 | 0.12 | 0.00 | 92 | 1020.8 |
| 20260507065548 | 39 | 253 | 3.5 | 5.2 | 0.00 | 0.14 | 0.00 | 92 | 1020.9 |
| 20260507065047 | 39 | 252 | 3.5 | 5.2 | 0.00 | 0.14 | 0.00 | 92 | 1020.8 |
| 20260507064557 | 39 | 236 | 3.5 | 5.2 | 0.00 | 0.14 | 0.00 | 92 | 1020.9 |
| 20260507064049 | 39 | 246 | 2.6 | 4.3 | 0.00 | 0.14 | 0.00 | 92 | 1021.0 |
| 20260507063548 | 39 | 248 | 2.6 | 4.3 | 0.00 | 0.14 | 0.00 | 92 | 1021.1 |
| 20260507063051 | 39 | 238 | 2.6 | 4.3 | 0.00 | 0.14 | 0.00 | 92 | 1021.0 |
| 20260507062548 | 39 | 248 | 3.5 | 4.3 | 0.00 | 0.14 | 0.00 | 92 | 1021.0 |
| 20260507062051 | 40 | 248 | 2.6 | 4.3 | 0.00 | 0.14 | 0.00 | 92 | 1021.0 |
| 20260507061601 | 40 | 238 | 3.5 | 4.3 | 0.00 | 0.14 | 0.00 | 92 | 1021.0 |
| 20260507061049 | 40 | 266 | 3.5 | 4.3 | 0.00 | 0.14 | 0.00 | 91 | 1021.1 |
| 20260507060548 | 40 | 262 | 2.6 | 4.3 | 0.00 | 0.14 | 0.00 | 91 | 1021.1 |
| 20260507060056 | 41 | 257 | 2.6 | 4.3 | 0.00 | 0.14 | 0.00 | 91 | 1021.1 |
| 20260507055550 | 41 | 255 | 3.5 | 4.3 | 0.00 | 0.15 | 0.00 | 91 | 1021.3 |
| 20260507055052 | 42 | 0 | 0.0 | 0.0 | 0.00 | 0.15 | 0.00 | 91 | 1021.3 |
| 20260507054636 | 42 | 0 | 0.0 | 0.0 | 0.00 | 0.15 | 0.00 | 92 | 1021.3 |
| 20260507054048 | 42 | 0 | 0.0 | 0.0 | 0.00 | 0.15 | 0.00 | 92 | 1021.3 |
| 20260507053550 | 42 | 0 | 0.0 | 0.0 | 0.00 | 0.15 | 0.00 | 91 | 1021.3 |
| 20260507053055 | 42 | 0 | 0.0 | 2.6 | 0.00 | 0.15 | 0.00 | 91 | 1021.3 |
| 20260507052547 | 42 | 0 | 0.0 | 3.5 | 0.00 | 0.15 | 0.00 | 91 | 1021.1 |
| 20260507052047 | 43 | 0 | 2.6 | 3.5 | 0.00 | 0.15 | 0.00 | 91 | 1021.1 |
| 20260507051552 | 43 | 257 | 2.6 | 5.2 | 0.00 | 0.15 | 0.00 | 91 | 1021.1 |
| 20260507051050 | 43 | 269 | 3.5 | 5.2 | 0.00 | 0.15 | 0.00 | 91 | 1021.3 |
| 20260507050549 | 43 | 273 | 3.5 | 5.2 | 0.00 | 0.15 | 0.00 | 91 | 1021.3 |
| 20260507050057 | 43 | 273 | 3.5 | 5.2 | 0.00 | 0.15 | 0.00 | 91 | 1021.3 |
| 20260507045548 | 43 | 264 | 2.6 | 5.2 | 0.00 | 0.15 | 0.15 | 91 | 1021.4 |
| 20260507045047 | 44 | 250 | 2.6 | 3.5 | 0.00 | 0.15 | 0.15 | 91 | 1021.3 |
| 20260507044600 | 44 | 250 | 1.7 | 4.3 | 0.00 | 0.15 | 0.15 | 91 | 1021.4 |
| 20260507044048 | 44 | 250 | 2.6 | 4.3 | 0.00 | 0.15 | 0.15 | 91 | 1021.4 |
| 20260507043548 | 44 | 264 | 3.5 | 4.3 | 0.00 | 0.15 | 0.15 | 91 | 1021.5 |
| 20260507043054 | 44 | 266 | 1.7 | 3.5 | 0.00 | 0.15 | 0.15 | 91 | 1021.5 |
| 20260507042547 | 44 | 262 | 1.7 | 3.5 | 0.00 | 0.15 | 0.15 | 91 | 1021.7 |
| 20260507042047 | 44 | 262 | 2.6 | 3.5 | 0.00 | 0.15 | 0.15 | 91 | 1021.6 |
| 20260507041602 | 44 | 0 | 0.0 | 0.0 | 0.00 | 0.15 | 0.15 | 91 | 1021.5 |
| 20260507041048 | 44 | 0 | 0.0 | 0.9 | 0.00 | 0.15 | 0.15 | 91 | 1021.5 |
| 20260507040547 | 44 | 0 | 0.0 | 0.9 | 0.00 | 0.15 | 0.15 | 91 | 1021.5 |
| 20260507040058 | 44 | 275 | 0.0 | 1.7 | 0.00 | 0.15 | 0.15 | 91 | 1021.5 |
| 20260507035547 | 44 | 0 | 0.0 | 1.7 | 0.00 | 0.15 | 0.15 | 91 | 1021.5 |
| 20260507035047 | 44 | 0 | 0.0 | 1.7 | 0.00 | 0.15 | 0.15 | 90 | 1021.5 |
| 20260507034558 | 44 | 0 | 0.0 | 1.7 | 0.00 | 0.15 | 0.15 | 90 | 1021.6 |
| 20260507034047 | 44 | 0 | 0.0 | 1.7 | 0.00 | 0.15 | 0.15 | 90 | 1021.5 |
| 20260507033549 | 44 | 306 | 0.9 | 1.7 | 0.00 | 0.15 | 0.15 | 90 | 1021.5 |
| 20260507033056 | 44 | 314 | 0.9 | 1.7 | 0.00 | 0.15 | 0.15 | 90 | 1021.4 |
| 20260507032549 | 44 | 320 | 0.0 | 1.7 | 0.00 | 0.15 | 0.15 | 89 | 1021.4 |
| 20260507032051 | 44 | 0 | 0.9 | 1.7 | 0.00 | 0.15 | 0.15 | 88 | 1021.4 |
| 20260507031605 | 44 | 280 | 1.7 | 1.7 | 0.00 | 0.15 | 0.15 | 88 | 1021.4 |
| 20260507031050 | 44 | 270 | 1.7 | 1.7 | 0.00 | 0.15 | 0.15 | 88 | 1021.2 |
| 20260507030547 | 45 | 269 | 1.7 | 2.6 | 0.00 | 0.15 | 0.15 | 88 | 1021.1 |
| 20260507030057 | 45 | 274 | 1.7 | 2.6 | 0.00 | 0.15 | 0.15 | 88 | 1021.0 |
| 20260507025549 | 45 | 301 | 1.7 | 2.6 | 0.00 | 0.15 | 0.15 | 88 | 1021.0 |
| 20260507025048 | 45 | 287 | 1.7 | 2.6 | 0.00 | 0.15 | 0.15 | 87 | 1020.9 |
| 20260507024556 | 45 | 302 | 0.9 | 1.7 | 0.00 | 0.15 | 0.15 | 87 | 1020.7 |
| 20260507024049 | 45 | 300 | 0.9 | 1.7 | 0.00 | 0.15 | 0.15 | 87 | 1020.7 |
| 20260507023548 | 45 | 0 | 0.9 | 1.7 | 0.00 | 0.15 | 0.15 | 86 | 1020.5 |
| 20260507023103 | 45 | 332 | 0.9 | 1.7 | 0.00 | 0.15 | 0.15 | 86 | 1020.5 |
| 20260507022548 | 45 | 339 | 0.0 | 2.6 | 0.00 | 0.15 | 0.15 | 85 | 1020.4 |
| 20260507022048 | 45 | 314 | 1.7 | 3.5 | 0.00 | 0.15 | 0.15 | 85 | 1020.4 |
| 20260507021554 | 45 | 306 | 1.7 | 3.5 | 0.00 | 0.15 | 0.15 | 84 | 1020.2 |
| 20260507021050 | 45 | 304 | 1.7 | 2.6 | 0.00 | 0.15 | 0.15 | 84 | 1020.1 |
| 20260507020548 | 45 | 313 | 1.7 | 2.6 | 0.00 | 0.15 | 0.15 | 84 | 1020.1 |
| 20260507020056 | 46 | 302 | 1.7 | 3.5 | 0.00 | 0.15 | 0.15 | 84 | 1020.1 |
| 20260507015548 | 46 | 300 | 1.7 | 3.5 | 0.00 | 0.15 | 0.15 | 83 | 1020.1 |
| 20260507015047 | 46 | 299 | 1.7 | 3.5 | 0.00 | 0.15 | 0.15 | 83 | 1020.2 |
| 20260507014604 | 46 | 305 | 1.7 | 5.2 | 0.00 | 0.15 | 0.15 | 83 | 1020.2 |
| 20260507014048 | 46 | 308 | 2.6 | 5.2 | 0.00 | 0.15 | 0.15 | 83 | 1020.2 |
| 20260507013547 | 46 | 294 | 3.5 | 5.2 | 0.00 | 0.15 | 0.15 | 82 | 1020.2 |
| 20260507013053 | 46 | 293 | 1.7 | 5.2 | 0.00 | 0.15 | 0.15 | 82 | 1020.4 |
| 20260507012548 | 47 | 288 | 3.5 | 5.2 | 0.00 | 0.15 | 0.15 | 81 | 1020.3 |
| 20260507012048 | 47 | 289 | 3.5 | 5.2 | 0.00 | 0.15 | 0.15 | 80 | 1020.2 |
| 20260507011552 | 47 | 285 | 1.7 | 2.6 | 0.00 | 0.15 | 0.15 | 80 | 1020.0 |
| 20260507011048 | 47 | 285 | 0.9 | 2.6 | 0.00 | 0.15 | 0.15 | 80 | 1019.9 |
| 20260507010548 | 47 | 285 | 0.9 | 2.6 | 0.00 | 0.15 | 0.15 | 78 | 1019.9 |
| 20260507010054 | 47 | 0 | 0.0 | 2.6 | 0.00 | 0.15 | 0.15 | 77 | 1019.9 |
| 20260507005548 | 47 | 0 | 0.0 | 3.5 | 0.00 | 0.15 | 0.15 | 76 | 1019.8 |
| 20260507005048 | 47 | 0 | 0.0 | 3.5 | 0.00 | 0.15 | 0.15 | 75 | 1019.8 |
| 20260507004552 | 47 | 0 | 0.0 | 0.0 | 0.00 | 0.15 | 0.15 | 75 | 1019.8 |
| 20260507004048 | 48 | 0 | 0.0 | 0.0 | 0.00 | 0.15 | 0.15 | 75 | 1019.7 |
| 20260507003548 | 47 | 0 | 0.0 | 0.0 | 0.00 | 0.15 | 0.15 | 75 | 1019.7 |
| 20260507003055 | 47 | 0 | 0.0 | 0.0 | 0.00 | 0.15 | 0.15 | 74 | 1019.8 |
| 20260507002548 | 47 | 0 | 0.0 | 0.0 | 0.00 | 0.15 | 0.15 | 74 | 1019.8 |
| 20260507002050 | 47 | 0 | 0.0 | 0.0 | 0.00 | 0.15 | 0.15 | 74 | 1019.8 |
| 20260507001551 | 47 | 0 | 0.0 | 1.7 | 0.00 | 0.15 | 0.15 | 74 | 1019.7 |
| 20260507001046 | 47 | 0 | 0.0 | 2.6 | 0.00 | 0.15 | 0.15 | 73 | 1019.8 |
| 20260507000552 | 48 | 0 | 0.9 | 2.6 | 0.00 | 0.15 | 0.15 | 74 | 1019.9 |
| 20260507000051 | 48 | 0 | 0.0 | 1.7 | 0.00 | 0.15 | 0.15 | 74 | 1019.8 |
| 20260506235547 | 48 | 0 | 0.0 | 1.7 | 0.00 | 0.15 | 0.15 | 74 | 1019.6 |
| 20260506235050 | 48 | 122 | 0.9 | 1.7 | 0.00 | 0.15 | 0.15 | 75 | 1019.6 |
| 20260506234554 | 48 | 0 | 0.0 | 0.9 | 0.00 | 0.15 | 0.15 | 75 | 1019.5 |
| 20260506234047 | 48 | 0 | 0.0 | 0.9 | 0.00 | 0.15 | 0.15 | 75 | 1019.6 |
| 20260506233547 | 48 | 0 | 0.0 | 3.5 | 0.00 | 0.15 | 0.15 | 75 | 1019.6 |
| 20260506233108 | 48 | 0 | 0.0 | 3.5 | 0.00 | 0.15 | 0.15 | 74 | 1019.7 |
| 20260506232549 | 48 | 0 | 0.0 | 0.9 | 0.00 | 0.15 | 0.15 | 74 | 1019.7 |
| 20260506232047 | 48 | 0 | 0.0 | 1.7 | 0.00 | 0.15 | 0.15 | 74 | 1019.6 |
| 20260506231550 | 48 | 0 | 0.0 | 1.7 | 0.00 | 0.15 | 0.15 | 75 | 1019.4 |
| 20260506231046 | 48 | 0 | 0.0 | 0.9 | 0.00 | 0.15 | 0.15 | 76 | 1019.3 |
| 20260506230547 | 48 | 312 | 0.0 | 1.7 | 0.00 | 0.15 | 0.15 | 75 | 1019.3 |
| 20260506230053 | 48 | 0 | 0.0 | 6.1 | 0.00 | 0.15 | 0.15 | 76 | 1019.5 |
| 20260506225547 | 48 | 312 | 1.7 | 6.1 | 0.00 | 0.15 | 0.15 | 76 | 1019.7 |
| 20260506225046 | 48 | 6 | 1.7 | 2.6 | 0.00 | 0.15 | 0.15 | 75 | 1019.5 |
| 20260506224550 | 48 | 0 | 0.0 | 2.6 | 0.00 | 0.15 | 0.15 | 78 | 1019.4 |
| 20260506224052 | 48 | 4 | 0.0 | 2.6 | 0.00 | 0.15 | 0.15 | 78 | 1019.4 |
| 20260506223552 | 47 | 0 | 0.0 | 3.5 | 0.00 | 0.15 | 0.15 | 80 | 1019.3 |
| 20260506223050 | 47 | 83 | 1.7 | 3.5 | 0.00 | 0.15 | 0.15 | 80 | 1019.2 |
| 20260506222549 | 47 | 89 | 0.9 | 3.5 | 0.00 | 0.15 | 0.15 | 81 | 1019.3 |
| 20260506222049 | 47 | 88 | 1.7 | 3.5 | 0.00 | 0.15 | 0.15 | 81 | 1019.4 |
| 20260506221553 | 47 | 82 | 0.0 | 3.5 | 0.00 | 0.15 | 0.15 | 81 | 1019.4 |
| 20260506221048 | 47 | 60 | 0.0 | 3.5 | 0.00 | 0.15 | 0.15 | 81 | 1019.5 |
| 20260506220547 | 46 | 0 | 1.7 | 3.5 | 0.00 | 0.15 | 0.15 | 81 | 1019.5 |
| 20260506220052 | 46 | 0 | 0.9 | 3.5 | 0.00 | 0.15 | 0.15 | 81 | 1019.5 |
| 20260506215549 | 46 | 0 | 0.9 | 3.5 | 0.00 | 0.15 | 0.15 | 82 | 1019.5 |
| 20260506215047 | 46 | 70 | 0.9 | 3.5 | 0.00 | 0.15 | 0.15 | 82 | 1019.6 |
| 20260506214554 | 46 | 34 | 1.7 | 5.2 | 0.00 | 0.15 | 0.15 | 81 | 1019.5 |
| 20260506214047 | 46 | 105 | 1.7 | 6.1 | 0.00 | 0.15 | 0.15 | 81 | 1019.6 |
| 20260506213546 | 46 | 85 | 2.6 | 7.0 | 0.00 | 0.15 | 0.15 | 81 | 1019.5 |
| 20260506213111 | 46 | 84 | 5.2 | 7.0 | 0.00 | 0.15 | 0.15 | 81 | 1019.5 |
| 20260506212549 | 46 | 91 | 1.7 | 7.8 | 0.00 | 0.15 | 0.15 | 82 | 1019.5 |
| 20260506212049 | 47 | 66 | 3.5 | 7.8 | 0.00 | 0.15 | 0.15 | 80 | 1019.5 |
| 20260506211554 | 47 | 91 | 2.6 | 5.2 | 0.00 | 0.15 | 0.15 | 81 | 1019.6 |
| 20260506211050 | 47 | 91 | 0.0 | 1.7 | 0.00 | 0.15 | 0.15 | 82 | 1019.7 |
| 20260506210547 | 47 | 0 | 0.9 | 4.3 | 0.00 | 0.15 | 0.15 | 82 | 1019.6 |
| 20260506210054 | 47 | 0 | 0.0 | 5.2 | 0.00 | 0.15 | 0.15 | 82 | 1019.8 |
| 20260506205548 | 46 | 113 | 1.7 | 5.2 | 0.00 | 0.15 | 0.15 | 82 | 1020.0 |
| 20260506205047 | 47 | 20 | 0.9 | 5.2 | 0.00 | 0.15 | 0.15 | 82 | 1020.0 |
| 20260506204559 | 47 | 0 | 0.9 | 6.1 | 0.00 | 0.15 | 0.15 | 84 | 1020.0 |
| 20260506204046 | 47 | 72 | 2.6 | 6.1 | 0.00 | 0.15 | 0.15 | 84 | 1020.0 |
| 20260506203550 | 47 | 59 | 2.6 | 5.2 | 0.00 | 0.15 | 0.15 | 85 | 1020.0 |
| 20260506203053 | 47 | 97 | 1.7 | 5.2 | 0.00 | 0.15 | 0.15 | 87 | 1020.0 |
| 20260506202549 | 47 | 94 | 0.0 | 5.2 | 0.00 | 0.15 | 0.15 | 88 | 1020.0 |
| 20260506202047 | 46 | 103 | 0.0 | 6.1 | 0.00 | 0.15 | 0.15 | 88 | 1020.1 |
| 20260506201553 | 46 | 62 | 0.9 | 7.8 | 0.00 | 0.15 | 0.15 | 89 | 1020.2 |
| 20260506201046 | 46 | 78 | 4.3 | 7.8 | 0.00 | 0.15 | 0.15 | 89 | 1020.2 |
| 20260506200546 | 45 | 68 | 2.6 | 7.0 | 0.00 | 0.15 | 0.15 | 91 | 1020.2 |
| 20260506200053 | 45 | 76 | 2.6 | 6.1 | 0.00 | 0.15 | 0.15 | 92 | 1020.3 |
| 20260506195549 | 45 | 100 | 2.6 | 7.8 | 0.01 | 0.15 | 0.15 | 92 | 1020.2 |
| 20260506195049 | 45 | 73 | 1.7 | 7.8 | 0.01 | 0.15 | 0.15 | 93 | 1020.2 |
| 20260506194628 | 44 | 115 | 4.3 | 8.7 | 0.01 | 0.15 | 0.15 | 93 | 1020.2 |
| 20260506194054 | 44 | 82 | 3.5 | 8.7 | 0.01 | 0.15 | 0.15 | 93 | 1020.2 |
| 20260506193549 | 44 | 69 | 0.9 | 6.1 | 0.01 | 0.15 | 0.15 | 93 | 1020.2 |
| 20260506193102 | 44 | 77 | 2.6 | 7.0 | 0.01 | 0.15 | 0.15 | 93 | 1020.3 |
| 20260506192547 | 43 | 46 | 3.5 | 7.0 | 0.01 | 0.15 | 0.15 | 93 | 1020.2 |
| 20260506192051 | 43 | 70 | 3.5 | 7.0 | 0.01 | 0.15 | 0.15 | 93 | 1020.2 |
| 20260506191551 | 43 | 103 | 3.5 | 6.1 | 0.01 | 0.15 | 0.15 | 93 | 1020.2 |
| 20260506191046 | 43 | 127 | 1.7 | 6.1 | 0.01 | 0.15 | 0.15 | 93 | 1020.2 |
| 20260506190547 | 43 | 73 | 1.7 | 6.1 | 0.01 | 0.15 | 0.15 | 93 | 1020.3 |
| 20260506190052 | 43 | 77 | 2.6 | 6.1 | 0.01 | 0.15 | 0.15 | 93 | 1020.3 |
| 20260506185546 | 43 | 63 | 1.7 | 6.1 | 0.00 | 0.14 | 0.14 | 93 | 1020.4 |
| 20260506185046 | 43 | 75 | 0.9 | 5.2 | 0.00 | 0.14 | 0.14 | 93 | 1020.5 |
| 20260506184550 | 43 | 92 | 1.7 | 5.2 | 0.00 | 0.14 | 0.14 | 93 | 1020.6 |
| 20260506184047 | 43 | 70 | 0.9 | 5.2 | 0.00 | 0.14 | 0.14 | 93 | 1020.6 |
| 20260506183549 | 42 | 0 | 0.0 | 5.2 | 0.01 | 0.14 | 0.14 | 93 | 1020.7 |
| 20260506183057 | 42 | 58 | 2.6 | 5.2 | 0.01 | 0.14 | 0.14 | 93 | 1020.7 |
| 20260506182548 | 42 | 56 | 1.7 | 5.2 | 0.01 | 0.14 | 0.14 | 93 | 1020.7 |
| 20260506182048 | 42 | 0 | 2.6 | 7.8 | 0.01 | 0.14 | 0.14 | 93 | 1020.8 |
| 20260506181556 | 42 | 67 | 1.7 | 7.8 | 0.01 | 0.14 | 0.14 | 93 | 1020.9 |
| 20260506181049 | 42 | 80 | 2.6 | 7.0 | 0.01 | 0.14 | 0.14 | 93 | 1020.9 |
| 20260506180550 | 42 | 72 | 1.7 | 7.0 | 0.01 | 0.14 | 0.14 | 93 | 1021.0 |
| 20260506175550 | 41 | 88 | 0.9 | 6.1 | 0.02 | 0.14 | 0.14 | 93 | 1021.0 |
| 20260506175046 | 41 | 0 | 2.6 | 6.1 | 0.02 | 0.14 | 0.14 | 93 | 1021.0 |
| 20260506174555 | 41 | 83 | 0.9 | 6.1 | 0.02 | 0.14 | 0.14 | 93 | 1021.0 |
| 20260506174048 | 41 | 50 | 2.6 | 8.7 | 0.02 | 0.14 | 0.14 | 93 | 1021.0 |
| 20260506173547 | 41 | 84 | 2.6 | 8.7 | 0.02 | 0.13 | 0.13 | 93 | 1021.0 |
| 20260506173057 | 41 | 72 | 1.7 | 4.3 | 0.02 | 0.13 | 0.13 | 93 | 1021.0 |
| 20260506172546 | 41 | 77 | 0.0 | 6.1 | 0.02 | 0.13 | 0.13 | 93 | 1020.9 |
| 20260506172046 | 41 | 0 | 0.9 | 6.1 | 0.02 | 0.13 | 0.13 | 93 | 1020.9 |
| 20260506171557 | 41 | 88 | 1.7 | 6.1 | 0.02 | 0.13 | 0.13 | 93 | 1020.9 |
| 20260506171054 | 41 | 58 | 0.9 | 6.1 | 0.02 | 0.13 | 0.13 | 93 | 1020.9 |
| 20260506170549 | 41 | 0 | 2.6 | 7.0 | 0.02 | 0.13 | 0.13 | 93 | 1020.9 |
| 20260506170103 | 41 | 0 | 0.9 | 7.0 | 0.03 | 0.13 | 0.13 | 93 | 1020.8 |
| 20260506165547 | 41 | 41 | 1.7 | 7.0 | 0.02 | 0.12 | 0.12 | 93 | 1020.9 |
| 20260506165047 | 41 | 55 | 2.6 | 6.1 | 0.02 | 0.12 | 0.12 | 93 | 1020.8 |
| 20260506164551 | 41 | 57 | 1.7 | 6.1 | 0.02 | 0.12 | 0.12 | 93 | 1020.8 |